Somerville, NJ

5:42 AM EDT on May 24, 2017 (GMT -0400)
Somerset

Weather History for KSMQ - January, 2011

Change the Weather History Date:

Sunday, January 16, 2011

  Actual Average Record
Temperature  
Mean Temperature 25 °F -  
Max Temperature 34 °F 35 °F 67 °F (1932)
Min Temperature 16 °F 16 °F -2 °F (1964)
Degree Days  
Heating Degree Days 40    
Moisture  
Dew Point 13 °F    
Average Humidity 57    
Maximum Humidity 81    
Minimum Humidity 38    
Precipitation  
Precipitation 0.00 in - - ()
Sea Level Pressure  
Sea Level Pressure 30.08 in    
Wind  
Wind Speed 4 mph (WNW)    
Max Wind Speed 14 mph    
Max Gust Speed 23 mph    
Visibility 10 miles    
Events      
Averages and records for this station are not official NWS values.
T = Trace of Precipitation, MM = Missing Value Source: NWS Daily Summary

Daily Weather History Graph

Daily Weather History Graph

Search for Another Location

Airport or City:

Trip Planner

Search our weather history database for the weather conditions in past years. The results will help you decide how hot, cold, wet, or windy it might be!

Date:

Astronomy

Jan. 16, 2011 Rise Set
Actual Time 7:20 AM EST 4:57 PM EST
Civil Twilight 6:50 AM EST 5:27 PM EST
Nautical Twilight 6:16 AM EST 6:00 PM EST
Astronomical Twilight 5:43 AM EST 6:33 PM EST
Moon 1:44 PM EST (1/16) 4:22 AM EST (1/16)
Length of Visible Light 10h 37m
Length of Day
9h 37m
Waxing Gibbous, 88% of the Moon is Illuminated
Jan 16
Waxing Gibbous
Jan 19
Full
Jan 26
Last Quarter
Feb 2
New
Feb 11
First Quarter

Hourly Weather History & Observations

Time (EST) Temp. Windchill Dew Point Humidity Pressure Visibility Wind Dir Wind Speed Gust Speed Precip Events Conditions
12:53 AM 27.0 °F - 21.9 °F 81% 29.88 in 10.0 mi Calm Calm - N/A   Scattered Clouds
1:53 AM 27.0 °F - 21.9 °F 81% 29.90 in 10.0 mi Calm Calm - N/A   Mostly Cloudy
2:53 AM 33.8 °F 29.6 °F 21.2 °F 60% 29.92 in 10.0 mi Variable 4.6 mph - N/A   Clear
3:53 AM 33.1 °F 25.5 °F 19.9 °F 59% 29.94 in 10.0 mi NW 9.2 mph 16.1 mph N/A   Clear
4:53 AM 32.0 °F 23.0 °F 17.1 °F 54% 29.97 in 10.0 mi NW 11.5 mph 20.7 mph N/A   Clear
5:53 AM 28.9 °F 23.9 °F 14.0 °F 54% 30.00 in 10.0 mi WNW 4.6 mph - N/A   Clear
6:53 AM 27.0 °F 23.0 °F 12.0 °F 53% 30.02 in 10.0 mi WNW 3.5 mph - N/A   Clear
7:53 AM 26.1 °F 20.5 °F 12.9 °F 58% 30.06 in 10.0 mi WNW 4.6 mph - N/A   Clear
8:53 AM 30.0 °F 22.4 °F 12.9 °F 49% 30.09 in 10.0 mi WNW 8.1 mph 16.1 mph N/A   Clear
9:53 AM 30.9 °F 24.3 °F 15.1 °F 52% 30.11 in 10.0 mi Variable 6.9 mph 18.4 mph N/A   Clear
10:53 AM 32.0 °F 22.1 °F 15.1 °F 50% 30.10 in 10.0 mi WNW 13.8 mph 23.0 mph N/A   Clear
11:53 AM 33.1 °F 23.4 °F 12.9 °F 43% 30.08 in 10.0 mi NNW 13.8 mph 20.7 mph N/A   Clear
12:53 PM 34.0 °F 25.5 °F 12.9 °F 42% 30.07 in 10.0 mi WNW 11.5 mph 16.1 mph N/A   Scattered Clouds
1:53 PM 34.0 °F 28.8 °F 12.0 °F 40% 30.07 in 10.0 mi Variable 5.8 mph 19.6 mph N/A   Clear
2:53 PM 34.0 °F 26.6 °F 10.9 °F 38% 30.08 in 10.0 mi NW 9.2 mph - N/A   Clear
3:53 PM 33.1 °F 30.0 °F 10.9 °F 40% 30.10 in 10.0 mi Variable 3.5 mph - N/A   Clear
4:53 PM 30.0 °F 25.2 °F 10.0 °F 43% 30.12 in 10.0 mi Variable 4.6 mph - N/A   Clear
5:53 PM 27.0 °F 23.0 °F 10.0 °F 49% 30.14 in 10.0 mi West 3.5 mph - N/A   Clear
6:53 PM 24.1 °F - 10.0 °F 55% 30.17 in 10.0 mi Calm Calm - N/A   Clear
7:53 PM 17.6 °F - 8.6 °F 68% 30.18 in 10.0 mi Calm Calm - N/A   Clear
8:53 PM 17.1 °F - 10.0 °F 74% 30.20 in 10.0 mi Calm Calm - N/A   Clear
9:53 PM 17.1 °F - 9.0 °F 71% 30.22 in 10.0 mi Calm Calm - N/A   Clear
10:53 PM 16.0 °F - 9.0 °F 74% 30.24 in 10.0 mi Calm Calm - N/A   Clear
11:53 PM 16.0 °F 10.4 °F 10.0 °F 77% 30.23 in 10.0 mi SSE 3.5 mph - N/A   Partly Cloudy